Location: Doverdale
(52.2833°N, 2.2000°W)
Time: 11:50:08
(UTC+00:00)

Cosmos 1656 - Pass Details

Date: 29 October 2020
Orbit: 796 x 851 km, 71.1° (Epoch: 24 November)

Event Time Altitude Azimuth Distance (km) Brightness Sun altitude
Rises 18:16:30 0° 201° (SSW) 3,344 7.2 -14.5°
Reaches altitude 10° 18:18:54 10° 199° (SSW) 2,424 6.4 -14.9°
Maximum altitude 18:24:26 72° 116° (ESE) 882 3.6 -15.7°
Drops below altitude 10° 18:30:05 10° 34° (NNE) 2,474 5.8 -16.6°
Enters shadow 18:30:42 - 33° (NNE) 2,706 6.0 -16.7°
